Weather in Bolsherechye

Russia / Novosibirsk Oblast     56°33′53″N   76°13′37″E
temp.,
°C
wind,
m/s
gust,
m/s
humid.,
%
clouds,
%
prec.,
mm/h
press.,
hPa
HPBL,
m
27 november, sat
sat2701:00−15sw51195100 0.0 1027272
04:00−13sw51293100 0.0 1026346
07:00−10ssw51293100 0.0 1026416
10:00−9ssw61493100 0.4 1024456
13:00−8sw71492100 0.4 1023585
16:00−6sw71593100 0.2 1022626
19:00−5sw81693100 0.5 1021664
22:00−4wsw81693100 0.2 1021732
28 november, sun
sun2801:00−4wsw7149393 0.4 1022635
04:00−3wsw6139493 0.3 1023625
07:00−4wsw61293100 0.3 1025601
10:00−6wsw61194100 0.1 1027459
13:00−5wsw51294100 0.1 1028460
16:00−6wsw4109595 0.0 1030336
19:00−10sw379867 0.1 1031101
22:00−10sw379771 0.0 1032112
29 november, mon
mon2901:00−11sw389655 0.0 1032127
04:00−12sw4109274 0.0 1032141
07:00−11ssw41184100 0.0 1030198
10:00−10sw41183100 0.0 1029218
13:00−8ssw41284100 0.0 1028295
16:00−7ssw51183100 0.0 1027285
19:00−7ssw51284100 0.0 1026264
22:00−9ssw5128364 0.0 1025216
30 november, tue
tue3001:00−11sw411845 0.0 1024187
04:00−10sw4128423 0.0 1023191
07:00−9sw41084100 0.0 1023190
10:00−5sw41089100 0.0 1023237
13:00−3wsw51190100 0.0 1023320
16:00−2sw4993100 0.0 1024266
19:00−3sw379566 0.0 1024174
22:00−9wsw229868 0.0 102615
1 december, wed
wed101:00−8ssw3499100 0.0 102661
04:00−9s3694100 0.0 1025108
07:00−12s498676 0.0 1024120
10:00−12s41388100 0.0 1023195
13:00−9s51586100 0.0 1022306
16:00−8s51287100 0.0 1019272
19:00−10ssw41288100 0.0 1019207
22:00−9ssw41189100 0.0 1017189